Weather History for Fullerton, CA

Change the Weather History Date:

Wednesday, April 3, 2013

  Actual Average Record
Temperature  
Mean Temperature 69 °F 61 °F  
Max Temperature 79 °F 71 °F 79 °F (2013)
Min Temperature 59 °F 51 °F 46 °F (2003)
Degree Days  
Heating Degree Days 0 5  
Month to date heating degree days 0 15  
Since 1 July heating degree days 715 1107  
Cooling Degree Days 4 0  
Month to date cooling degree days 6 0  
Year to date cooling degree days 57 22  
Growing Degree Days 18 (Base 50)    
Moisture  
Dew Point 53 °F    
Average Humidity 60    
Maximum Humidity 80    
Minimum Humidity 39    
Precipitation  
Precipitation 0.00 in 0.03 in 0.02 in (2004)
Month to date precipitation 0.00 0.09  
Year to date precipitation 2.03 8.53  
Since 1 July precipitation 5.34 12.76  
Snow  
Snow 0.00 in - - ()
Month to date snowfall 0.0  
Year to date snowfall 0.0  
Since 1 July snowfall 0.0  
Snow Depth 0.00 in    
Sea Level Pressure  
Sea Level Pressure 30.04 in    
Wind  
Wind Speed 3 mph (South)    
Max Wind Speed 12 mph    
Max Gust Speed 16 mph    
Visibility 9 miles    
Events      
T = Trace of Precipitation, MM = Missing Value Source: NWS Daily Summary

Daily Weather History Graph

Daily Weather History Graph

Search for Another Location

Airport:

Trip Planner

Search our weather history database for the weather conditions in past years. The results will help you decide how hot, cold, wet, or windy it might be!

Date:

Astronomy

Apr. 03, 2013 Rise Set
Actual Time 6:36 AM PDT 7:14 PM PDT
Civil Twilight 6:11 AM PDT 7:39 PM PDT
Nautical Twilight 5:41 AM PDT 8:09 PM PDT
Astronomical Twilight 5:11 AM PDT 8:39 PM PDT
Moon 2:03 AM PDT (4/3) 12:48 PM PDT (4/3)
Length of Visible Light 13h 28m
Length of Day
12h 38m
Last Quarter, 43% of the Moon is Illuminated
Apr 3
Last Quarter
Apr 10
New
Apr 18
First Quarter
Apr 25
Full
May 2
Last Quarter

Hourly Weather History & Observations

Time (PDT) Temp. Dew Point Humidity Pressure Visibility Wind Dir Wind Speed Gust Speed Precip Events Conditions
12:53 AM 61.0 °F 53.1 °F 75% 30.04 in 10.0 mi Calm Calm - N/A   Clear
1:53 AM 60.1 °F 52.0 °F 75% 30.04 in 10.0 mi ESE 3.5 mph - N/A   Clear
2:05 AM 59.0 °F 51.8 °F 77% 30.05 in 10.0 mi ESE 3.5 mph - N/A   Scattered Clouds
2:17 AM 60.8 °F 53.6 °F 77% 30.05 in 10.0 mi Calm Calm - N/A   Mostly Cloudy
2:29 AM 60.8 °F 53.6 °F 77% 30.04 in 10.0 mi Calm Calm - N/A   Scattered Clouds
2:53 AM 59.0 °F 54.0 °F 83% 30.04 in 10.0 mi SSE 3.5 mph - N/A   Mostly Cloudy
3:53 AM 60.1 °F 53.1 °F 78% 30.03 in 9.0 mi SE 4.6 mph - N/A   Overcast
4:53 AM 60.1 °F 53.1 °F 78% 30.04 in 10.0 mi Calm Calm - N/A   Overcast
5:53 AM 60.1 °F 52.0 °F 75% 30.04 in 10.0 mi Calm Calm - N/A   Overcast
6:22 AM 60.8 °F 51.8 °F 72% 30.06 in 8.0 mi Calm Calm - N/A   Overcast
6:53 AM 60.1 °F 52.0 °F 75% 30.06 in 7.0 mi Calm Calm - N/A   Overcast
7:53 AM 60.1 °F 52.0 °F 75% 30.08 in 6.0 mi ESE 4.6 mph - N/A   Haze
8:53 AM 61.0 °F 52.0 °F 72% 30.08 in 6.0 mi Calm Calm - N/A   Haze
9:38 AM 62.6 °F 51.8 °F 68% 30.08 in 6.0 mi Calm Calm - N/A   Haze
9:53 AM 64.0 °F 52.0 °F 65% 30.07 in 6.0 mi Calm Calm - N/A   Haze
10:53 AM 70.0 °F 52.0 °F 53% 30.07 in 7.0 mi SW 4.6 mph - N/A   Clear
11:53 AM 73.0 °F 52.0 °F 48% 30.05 in 8.0 mi Calm Calm - N/A   Clear
12:53 PM 78.1 °F 52.0 °F 40% 30.03 in 10.0 mi SW 4.6 mph - N/A   Clear
1:53 PM 75.9 °F 54.0 °F 46% 30.02 in 7.0 mi SW 10.4 mph 16.1 mph N/A   Clear
2:53 PM 73.9 °F 54.0 °F 50% 30.01 in 10.0 mi Variable 4.6 mph - N/A   Clear
3:53 PM 75.9 °F 54.0 °F 46% 29.99 in 10.0 mi South 8.1 mph - N/A   Clear
4:53 PM 78.1 °F 54.0 °F 43% 29.97 in 10.0 mi South 4.6 mph - N/A   Clear
5:53 PM 75.9 °F 54.0 °F 46% 29.97 in 10.0 mi SW 9.2 mph - N/A   Clear
6:53 PM 69.1 °F 54.0 °F 58% 29.99 in 10.0 mi South 5.8 mph - N/A   Clear
7:53 PM 64.9 °F 54.0 °F 68% 30.01 in 10.0 mi South 3.5 mph - N/A   Clear
8:53 PM 63.0 °F 54.0 °F 72% 30.04 in 10.0 mi South 3.5 mph - N/A   Clear
9:53 PM 62.1 °F 54.0 °F 75% 30.06 in 9.0 mi South 3.5 mph - N/A   Mostly Cloudy
10:53 PM 62.1 °F 54.0 °F 75% 30.07 in 6.0 mi Calm Calm - N/A   Haze
11:53 PM 62.1 °F 54.0 °F 75% 30.09 in 6.0 mi SE 4.6 mph - N/A   Haze